Weather - Helsinki Query any day in the database

Current weather  

Weather data for a selected day (2006-01-01 -2020-10-31)
Enter date:     <-     scroll days         ->
day curves
Low temperature°C -25.008:50
High temperature°C -15.016:20
Low wind chill°C -32.409:50
Average temperature°C -20.9 
High wind speed (10 min) m/s 3.023:50
Low pressurehPa 1008.000:20
High pressurehPa 1015.023:50
Low R.H% 6013:50
High R.H% 8423:50
Day weather data as a table
Date Time Temp
°C
Chill
°C
Pressure
hPA
Wind
m/s
Hum
%
Precip
mm
2007-02-07 23:50:00 -22.0  -30.0  1015.0 3.0 84 -
2007-02-07 23:20:00 -21.0  -28.8  1015.0 3.0 84 -
2007-02-07 22:50:00 -21.0  -26.9  1015.0 2.0 84 -
2007-02-07 22:20:00 -20.0  -25.8  1015.0 2.0 77 -
2007-02-07 21:50:00 -21.0  -26.9  1015.0 2.0 84 -
2007-02-07 21:20:00 -20.0  -25.8  1014.0 2.0 84 -
2007-02-07 20:50:00 -19.0  -24.6  1014.0 2.0 77 -
2007-02-07 20:20:00 -20.0  -25.8  1014.0 2.0 77 -
2007-02-07 19:50:00 -20.0  -25.8  1014.0 2.0 84 -
2007-02-07 19:20:00 -19.0  -24.6  1014.0 2.0 77 -
2007-02-07 18:50:00 -19.0  -24.6  1014.0 2.0 84 -
2007-02-07 18:20:00 -18.0  -23.4  1014.0 2.0 78 -
2007-02-07 17:50:00 -18.0  -20.8  1013.0 1.0 78 -
2007-02-07 17:20:00 -16.0  -21.1  1013.0 2.0 66 -
2007-02-07 16:50:00 -16.0  -21.1  1013.0 2.0 66 -
2007-02-07 16:20:00 -15.0  -21.5  1013.0 3.0 60 -
2007-02-07 15:50:00 -15.0  -21.5  1013.0 3.0 60 -
2007-02-07 15:20:00 -15.0  -21.5  1013.0 3.0 60 -
2007-02-07 14:50:00 -15.0  -20.0  1013.0 2.0 60 -
2007-02-07 14:20:00 -16.0  -22.7  1012.0 3.0 66 -
2007-02-07 13:50:00 -16.0  -21.1  1012.0 2.0 60 -
2007-02-07 13:20:00 -17.0  -19.7  1012.0 1.0 65 -
2007-02-07 12:50:00 -18.0  -23.4  1012.0 2.0 65 -
2007-02-07 12:20:00 -19.0  -24.6  1012.0 2.0 71 -
2007-02-07 11:50:00 -20.0  -25.8  1012.0 2.0 71 -
2007-02-07 11:20:00 -21.0  -28.8  1012.0 3.0 64 -
2007-02-07 10:50:00 -22.0  -28.1  1012.0 2.0 70 -
2007-02-07 10:20:00 -23.0  -29.3  1011.0 2.0 70 -
2007-02-07 09:50:00 -24.0  -32.4  1011.0 3.0 70 -
2007-02-07 09:20:00 -24.0  -30.4  1011.0 2.0 63 -
2007-02-07 08:50:00 -25.0  -31.6  1011.0 2.0 69 -
2007-02-07 08:20:00 -25.0  -31.6  1010.0 2.0 69 -
2007-02-07 07:50:00 -25.0  -31.6  1010.0 2.0 69 -
2007-02-07 07:20:00 -25.0  -31.6  1010.0 2.0 69 -
2007-02-07 06:50:00 -25.0  -31.6  1010.0 2.0 76 -
2007-02-07 06:20:00 -25.0  -31.6  1010.0 2.0 76 -
2007-02-07 05:50:00 -25.0  -31.6  1010.0 2.0 76 -
2007-02-07 05:20:00 -24.0  -30.4  1010.0 2.0 70 -
2007-02-07 04:50:00 -24.0  -32.4  1009.0 3.0 70 -
2007-02-07 04:20:00 -24.0  -30.4  1009.0 2.0 70 -
2007-02-07 03:50:00 -24.0  -30.4  1009.0 2.0 70 -
2007-02-07 03:20:00 -24.0  -32.4  1009.0 3.0 70 -
2007-02-07 02:50:00 -24.0  -30.4  1009.0 2.0 76 -
2007-02-07 02:20:00 -24.0  -32.4  1009.0 3.0 76 -
2007-02-07 01:50:00 -24.0  -32.4  1009.0 3.0 76 -
2007-02-07 00:50:00 -23.0  -29.3  1009.0 2.0 70 -
2007-02-07 00:20:00 -23.0  -29.3  1008.0 2.0 70 -
Unit conversions: